Nuiqsut, AK

5:28 PM AKDT on April 24, 2018 (GMT -0800)
Nuiqsut

Weather History for PAQT - October, 2013

Change the Weather History Date:

Friday, October 4, 2013

  Actual Average (PAKU) Record (PAKU)
Temperature  
Mean Temperature 24 °F -  
Max Temperature 28 °F 26 °F 44 °F (1991)
Min Temperature 21 °F 20 °F -2 °F (1992)
Degree Days  
Heating Degree Days 40    
Moisture  
Dew Point 25 °F    
Average Humidity 98    
Maximum Humidity 100    
Minimum Humidity 93    
Precipitation  
Precipitation 0.00 in - - ()
Sea Level Pressure  
Sea Level Pressure 29.96 in    
Wind  
Wind Speed 1 mph (NNW)    
Max Wind Speed 5 mph    
Max Gust Speed -    
Visibility 3 miles    
Events Fog , Rain , Snow    
Averages and records for this station are not official NWS values.
T = Trace of Precipitation, MM = Missing Value Source: NWS Daily Summary

Daily Weather History Graph

Daily Weather History Graph

Search for Another Location

Airport or City:

Astronomy

Oct. 04, 2013 Rise Set
Actual Time 8:34 AM AKDT 7:09 PM AKDT
Civil Twilight 7:32 AM AKDT 8:10 PM AKDT
Nautical Twilight 6:19 AM AKDT 9:22 PM AKDT
Astronomical Twilight 4:56 AM AKDT 10:44 PM AKDT
Moon 8:35 AM AKDT (10/4) 6:29 PM AKDT (10/4)
Length of Visible Light 12h 37m
Length of Day
10h 34m
Waning Crescent, 0% of the Moon is Illuminated
Oct 4
Waning Crescent
Oct 4
New
Oct 11
First Quarter
Oct 18
Full
Oct 26
Last Quarter

Hourly Weather History & Observations

Time (AKDT) Temp. Windchill Dew Point Humidity Pressure Visibility Wind Dir Wind Speed Gust Speed Precip Events Conditions
12:00 AM 21.2 °F - 21.2 °F 100% 29.97 in 8.0 mi Calm Calm - N/A   Overcast
12:28 AM 21.2 °F - 21.2 °F 100% 29.97 in 1.8 mi Calm Calm - N/A   Overcast
12:50 AM 21.2 °F - 21.2 °F 100% 29.97 in 0.8 mi Calm Calm - N/A   Overcast
12:53 AM 21.9 °F - 21.0 °F 96% 29.97 in 0.8 mi Calm Calm - N/A   Overcast
1:10 AM 21.2 °F 16.4 °F 21.2 °F 100% 29.97 in 1.0 mi WNW 3.5 mph - N/A   Mist
1:38 AM 21.2 °F 14.9 °F 21.2 °F 100% 29.97 in 3.0 mi WNW 4.6 mph - N/A   Overcast
1:53 AM 21.9 °F 15.7 °F 21.9 °F 100% 29.97 in 4.0 mi WNW 4.6 mph - N/A   Overcast
2:00 AM 21.2 °F 14.9 °F 21.2 °F 100% 29.97 in 1.8 mi WNW 4.6 mph - N/A   Overcast
2:14 AM 23.0 °F 18.4 °F 21.2 °F 93% 29.97 in 0.8 mi WNW 3.5 mph - N/A   Mist
2:53 AM 23.0 °F 18.4 °F 23.0 °F 100% 29.97 in 0.8 mi WNW 3.5 mph - N/A   Overcast
3:22 AM 24.8 °F 20.5 °F 24.8 °F 100% 29.97 in 0.8 mi NW 3.5 mph - N/A   Overcast
3:33 AM 24.8 °F 19.1 °F 24.8 °F 100% 29.97 in 1.2 mi WNW 4.6 mph - N/A   Overcast
3:49 AM 24.8 °F 20.5 °F 24.8 °F 100% 29.97 in 2.0 mi NNW 3.5 mph - 0.00 in Rain Light Freezing Rain
3:53 AM 24.1 °F 19.7 °F 24.1 °F 100% 29.97 in 2.0 mi NNW 3.5 mph - 0.00 in Rain Light Freezing Rain
4:04 AM 24.8 °F 20.5 °F 24.8 °F 100% 29.97 in 1.8 mi NW 3.5 mph - 0.00 in Snow Light Snow
4:35 AM 24.8 °F - 24.8 °F 100% 29.97 in 2.0 mi Calm Calm - 0.00 in Snow Light Snow
4:42 AM 24.8 °F - 24.8 °F 100% 29.97 in 1.8 mi Calm Calm - 0.00 in Snow Light Snow
4:51 AM 24.8 °F - 24.8 °F 100% 29.97 in 2.0 mi Calm Calm - 0.00 in Snow Light Snow
4:53 AM 25.0 °F - 24.1 °F 96% 29.97 in 2.5 mi Calm Calm - 0.00 in Snow Light Snow
5:18 AM 24.8 °F 20.5 °F 24.8 °F 100% 29.97 in 3.0 mi NNW 3.5 mph - 0.00 in Snow Light Snow
5:51 AM 24.8 °F - 24.8 °F 100% 29.97 in 2.5 mi Calm Calm - 0.00 in Snow Light Snow
5:53 AM 25.0 °F 20.7 °F 24.1 °F 96% 29.97 in 2.5 mi WNW 3.5 mph - 0.00 in Snow Light Snow
6:02 AM 24.8 °F 20.5 °F 24.8 °F 100% 29.97 in 4.0 mi WNW 3.5 mph - 0.00 in Snow Light Snow
6:22 AM 24.8 °F - 24.8 °F 100% 29.97 in 3.0 mi Calm Calm - 0.00 in   Overcast
6:36 AM 24.8 °F 19.1 °F 24.8 °F 100% 29.97 in 10.0 mi WNW 4.6 mph - 0.00 in   Overcast
6:53 AM 25.0 °F - 25.0 °F 100% 29.97 in 10.0 mi Calm Calm - 0.00 in   Overcast
7:12 AM 26.6 °F - 24.8 °F 93% 29.97 in 7.0 mi Calm Calm - N/A   Overcast
7:22 AM 26.6 °F - 24.8 °F 93% 29.97 in 6.0 mi Calm Calm - N/A   Overcast
7:33 AM 26.6 °F - 26.6 °F 100% 29.97 in 1.5 mi Calm Calm - N/A   Overcast
7:53 AM 26.1 °F - 26.1 °F 100% 29.97 in 0.5 mi Calm Calm - N/A Fog Light Freezing Fog
8:06 AM 26.6 °F - 26.6 °F 100% 29.97 in 1.2 mi Calm Calm - N/A   Overcast
8:25 AM 26.6 °F - 26.6 °F 100% 29.97 in 2.0 mi Calm Calm - N/A   Overcast
8:32 AM 26.6 °F - 26.6 °F 100% 29.97 in 1.5 mi Calm Calm - N/A   Overcast
8:45 AM 26.6 °F - 26.6 °F 100% 29.97 in 2.0 mi Calm Calm - N/A   Overcast
8:51 AM 26.6 °F 22.6 °F 26.6 °F 100% 29.97 in 2.5 mi WNW 3.5 mph - N/A   Overcast
8:53 AM 26.1 °F 21.9 °F 26.1 °F 100% 29.97 in 2.5 mi WNW 3.5 mph - N/A   Overcast
9:02 AM 26.6 °F - 26.6 °F 100% 29.97 in 0.8 mi Calm Calm - N/A   Overcast
9:53 AM 27.0 °F - 27.0 °F 100% 29.97 in 0.2 mi Calm Calm - N/A Fog Light Freezing Fog
10:49 AM 28.4 °F - 26.6 °F 93% 29.96 in 2.5 mi Calm Calm - N/A   Overcast
10:50 AM 28.4 °F - 26.6 °F 93% 29.96 in 3.0 mi Calm Calm - N/A   Overcast
10:53 AM 27.0 °F - 27.0 °F 100% 29.97 in 6.0 mi Calm Calm - N/A   Overcast
11:53 AM 28.0 °F - 28.0 °F 100% 29.97 in 10.0 mi Calm Calm - N/A   Overcast
12:53 PM 28.0 °F - 27.0 °F 96% 29.97 in 10.0 mi Calm Calm - N/A   Overcast
1:51 PM 28.4 °F - 26.6 °F 93% 29.97 in 6.0 mi Calm Calm - N/A   Overcast
1:53 PM 28.0 °F - 27.0 °F 96% 29.97 in 6.0 mi Calm Calm - N/A   Overcast
2:33 PM 28.4 °F - 26.6 °F 93% 29.96 in 10.0 mi Calm Calm - N/A   Overcast
2:53 PM 27.0 °F 21.6 °F 27.0 °F 100% 29.96 in 10.0 mi ENE 4.6 mph - N/A   Overcast
3:27 PM 26.6 °F 22.6 °F 26.6 °F 100% 29.96 in 1.5 mi ENE 3.5 mph - N/A   Overcast
3:35 PM 26.6 °F 22.6 °F 26.6 °F 100% 29.96 in 0.2 mi NE 3.5 mph - N/A Fog Light Freezing Fog
3:53 PM 27.0 °F 23.0 °F 26.1 °F 96% 29.96 in 0.2 mi ENE 3.5 mph - N/A Fog Light Freezing Fog
4:16 PM 26.6 °F - 26.6 °F 100% 29.96 in 1.0 mi Calm Calm - N/A   Overcast
4:24 PM 26.6 °F 22.6 °F 26.6 °F 100% 29.96 in 3.0 mi East 3.5 mph - N/A   Overcast
4:53 PM 26.1 °F - 26.1 °F 100% 29.96 in 7.0 mi Calm Calm - N/A   Overcast
5:24 PM 26.6 °F - 26.6 °F 100% 29.95 in 2.0 mi Calm Calm - N/A   Overcast
5:38 PM 26.6 °F - 26.6 °F 100% 29.95 in 4.0 mi Calm Calm - N/A   Overcast
5:53 PM 27.0 °F - 26.1 °F 96% 29.96 in 4.0 mi Calm Calm - N/A   Overcast
6:13 PM 26.6 °F - 26.6 °F 100% 29.95 in 1.8 mi Calm Calm - N/A   Overcast
6:23 PM 26.6 °F - 26.6 °F 100% 29.95 in 0.5 mi Calm Calm - N/A Fog Light Freezing Fog
6:43 PM 26.6 °F - 26.6 °F 100% 29.95 in 0.5 mi Calm Calm - N/A Fog Light Freezing Fog
6:53 PM 26.1 °F - 26.1 °F 100% 29.95 in 0.2 mi Calm Calm - N/A Fog Light Freezing Fog
7:09 PM 26.6 °F - 26.6 °F 100% 29.95 in 2.5 mi Calm Calm - N/A   Overcast
7:16 PM 26.6 °F - 24.8 °F 93% 29.95 in 6.0 mi Calm Calm - N/A   Overcast
7:42 PM 26.6 °F - 24.8 °F 93% 29.95 in 2.5 mi Calm Calm - N/A   Overcast
7:49 PM 26.6 °F - 24.8 °F 93% 29.95 in 2.0 mi Calm Calm - N/A   Overcast
7:53 PM 26.1 °F - 25.0 °F 96% 29.95 in 2.0 mi Calm Calm - N/A   Overcast
7:57 PM 26.6 °F - 26.6 °F 100% 29.95 in 1.8 mi Calm Calm - N/A   Overcast
8:11 PM 26.6 °F - 24.8 °F 93% 29.95 in 2.0 mi Calm Calm - N/A   Overcast
8:19 PM 26.6 °F - 24.8 °F 93% 29.95 in 1.5 mi Calm Calm - N/A   Overcast
8:26 PM 26.6 °F - 24.8 °F 93% 29.94 in 3.0 mi Calm Calm - N/A   Overcast
8:44 PM 26.6 °F - 24.8 °F 93% 29.94 in 1.8 mi Calm Calm - N/A   Overcast
8:53 PM 26.1 °F - 25.0 °F 96% 29.94 in 1.0 mi Calm Calm - N/A   Overcast
9:04 PM 26.6 °F - 26.6 °F 100% 29.94 in 0.8 mi Calm Calm - N/A   Overcast
9:53 PM 26.1 °F - 26.1 °F 100% 29.94 in 0.2 mi Calm Calm - N/A Fog Light Freezing Fog
10:44 PM 24.8 °F 20.5 °F 24.8 °F 100% 29.92 in 0.5 mi ENE 3.5 mph - N/A Fog Light Freezing Fog
10:53 PM 24.1 °F 18.2 °F 23.0 °F 96% 29.93 in 0.5 mi ENE 4.6 mph - N/A Fog Light Freezing Fog
11:53 PM 24.1 °F 18.2 °F 24.1 °F 100% 29.92 in 0.2 mi ENE 4.6 mph - N/A Fog Light Freezing Fog